Overview Statistics Trail Chart Weather Telemetry Raw packets
 

This is the latest recevied weather packets stored in our database for station/object N7ZAP. If no packets are shown the sender has not sent any weather packets the latest 10 day(s).

<< 86 87 88 89 90 91 92 >>
Time Temp. Humidity Pressure Rain* Wind** Luminosity Snow
1788060630 25° C 48% 1021.2 hPa 0 mm - - -
1788060329 25° C 45% 1020.9 hPa 0 mm - - -
1788060025 25° C 44% 1020.4 hPa 0 mm - - -
1788059720 25° C 48% 1020.2 hPa 0 mm - - -
1788059415 25.56° C 47% 1020.2 hPa 0 mm - - -
1788059111 25.56° C 45% 1020.6 hPa 0 mm - - -
1788058812 25.56° C 44% 1020.3 hPa 0 mm - - -
1788058510 25.56° C 43% 1020.1 hPa 0 mm - - -
1788058210 26.11° C 42% 1019.9 hPa 0 mm - - -
1788057905 26.11° C 42% 1019.4 hPa 0 mm - - -
1788057603 26.11° C 42% 1019.8 hPa 0 mm - - -
1788057301 25.56° C 40% 1019.7 hPa 0 mm - - -
1788057001 25.56° C 41% 1019.7 hPa 0 mm - - -
1788056696 26.11° C 41% 1019.8 hPa 0 mm - - -
1788056391 25.56° C 41% 1019.5 hPa 0 mm - - -
1788056086 25.56° C 42% 1019.4 hPa 0 mm - - -
1788055786 25° C 47% 1019.1 hPa 0 mm - - -
1788055480 25.56° C 47% 1019.1 hPa 0 mm - - -
1788055175 25.56° C 48% 1019.1 hPa 0 mm - - -
1788054870 25.56° C 47% 1019.1 hPa 0 mm - - -
1788054565 25.56° C 45% 1019.1 hPa 0 mm - - -
1788054261 25.56° C 44% 1019 hPa 0 mm - - -
1788053957 25.56° C 45% 1019.1 hPa 0 mm - - -
1788053652 25.56° C 45% 1019 hPa 0 mm - - -
1788053347 26.11° C 47% 1019.4 hPa 0 mm - - -

* Rain latest hour (hover to see other rain measurements)
** Current wind speed in m/s (hover to see current wind gust speed)